TimeCST,TemperatureF,Dew PointF,Humidity,Sea Level PressureIn,VisibilityMPH,Wind Direction,Wind SpeedMPH,Gust SpeedMPH,PrecipitationIn,Events,Conditions,WindDirDegrees,DateUTC
12:53 AM,48.0,44.1,86,30.14,10.0,Calm,Calm,-,N/A,,Overcast,0,2012-11-21 06:53:00
1:53 AM,48.9,45.0,86,30.14,10.0,Calm,Calm,-,N/A,,Mostly Cloudy,0,2012-11-21 07:53:00
2:53 AM,46.9,44.1,90,30.14,10.0,Calm,Calm,-,N/A,,Partly Cloudy,0,2012-11-21 08:53:00
3:53 AM,45.0,43.0,93,30.14,10.0,Calm,Calm,-,N/A,,Clear,0,2012-11-21 09:53:00
4:53 AM,45.0,42.1,90,30.15,10.0,Calm,Calm,-,N/A,,Clear,0,2012-11-21 10:53:00
5:53 AM,44.1,42.1,93,30.17,10.0,Calm,Calm,-,N/A,,Clear,0,2012-11-21 11:53:00
6:53 AM,44.1,42.1,93,30.19,7.0,Calm,Calm,-,N/A,,Clear,0,2012-11-21 12:53:00
7:53 AM,51.1,46.0,83,30.20,8.0,Calm,Calm,-,N/A,,Clear,0,2012-11-21 13:53:00
8:53 AM,57.0,46.9,69,30.20,10.0,Calm,Calm,-,N/A,,Clear,0,2012-11-21 14:53:00
9:53 AM,62.1,46.9,58,30.20,10.0,Calm,Calm,-,N/A,,Clear,0,2012-11-21 15:53:00
10:53 AM,68.0,48.0,49,30.19,10.0,NW,5.8,-,N/A,,Partly Cloudy,320,2012-11-21 16:53:00
11:53 AM,70.0,48.0,46,30.17,10.0,NW,5.8,-,N/A,,Partly Cloudy,320,2012-11-21 17:53:00
12:53 PM,71.1,46.9,42,30.16,10.0,NW,8.1,-,N/A,,Partly Cloudy,320,2012-11-21 18:53:00
1:53 PM,72.0,46.0,40,30.14,10.0,North,8.1,-,N/A,,Scattered Clouds,10,2012-11-21 19:53:00
2:53 PM,71.1,46.0,41,30.15,10.0,NNW,5.8,-,N/A,,Partly Cloudy,330,2012-11-21 20:53:00
3:53 PM,68.0,46.0,45,30.15,10.0,NNW,5.8,-,N/A,,Scattered Clouds,330,2012-11-21 21:53:00
4:53 PM,60.1,46.9,62,30.16,10.0,North,4.6,-,N/A,,Partly Cloudy,10,2012-11-21 22:53:00
5:53 PM,59.0,46.9,64,30.18,10.0,Calm,Calm,-,N/A,,Clear,0,2012-11-21 23:53:00
6:53 PM,55.0,46.9,74,30.20,10.0,Calm,Calm,-,N/A,,Clear,0,2012-11-22 00:53:00
7:53 PM,52.0,46.9,83,30.19,10.0,Calm,Calm,-,N/A,,Clear,0,2012-11-22 01:53:00
8:53 PM,51.1,46.0,83,30.21,9.0,Calm,Calm,-,N/A,,Clear,0,2012-11-22 02:53:00
9:53 PM,48.9,46.0,90,30.21,8.0,Calm,Calm,-,N/A,,Clear,0,2012-11-22 03:53:00
10:53 PM,46.9,45.0,93,30.21,7.0,Calm,Calm,-,N/A,,Clear,0,2012-11-22 04:53:00
11:53 PM,46.0,44.1,93,30.21,7.0,Calm,Calm,-,N/A,,Clear,0,2012-11-22 05:53:00